| time (UTC) | temp F | wind direction | speed MPH | gust MPH | rain 1hr in | rain 24hr in | rain mn in | humidity % | barometer mb |
| 20260904131510 | 82 | 108 | 0.0 | 0.0 | 0.00 | 0.00 | 0.00 | 83 | 1021.0 |
| 20260904131006 | 82 | 107 | 0.0 | 0.0 | 0.00 | 0.00 | 0.00 | 87 | 1021.1 |
| 20260904130505 | 82 | 107 | 0.0 | 0.0 | 0.00 | 0.00 | 0.00 | 84 | 1021.3 |
| 20260904130000 | 80 | 107 | 0.0 | 0.0 | 0.00 | 0.00 | 0.00 | 87 | 1021.1 |
| 20260904125456 | 80 | 107 | 0.0 | 0.0 | 0.00 | 0.00 | 0.00 | 88 | 1020.9 |
| 20260904124956 | 79 | 158 | 0.0 | 0.0 | 0.00 | 0.00 | 0.00 | 88 | 1021.1 |
| 20260904124452 | 78 | 158 | 0.0 | 0.0 | 0.00 | 0.00 | 0.00 | 89 | 1021.1 |
| 20260904123948 | 78 | 128 | 0.0 | 0.0 | 0.00 | 0.00 | 0.00 | 91 | 1021.4 |
| 20260904123442 | 78 | 158 | 0.0 | 1.0 | 0.00 | 0.00 | 0.00 | 90 | 1021.1 |
| 20260904122938 | 78 | 158 | 0.0 | 0.0 | 0.00 | 0.00 | 0.00 | 90 | 1021.4 |
| 20260904122437 | 78 | 158 | 0.0 | 0.0 | 0.00 | 0.00 | 0.00 | 90 | 1021.2 |
| 20260904121932 | 78 | 158 | 0.0 | 0.0 | 0.00 | 0.00 | 0.00 | 90 | 1021.1 |
| 20260904121428 | 76 | 157 | 0.0 | 0.0 | 0.00 | 0.00 | 0.00 | 94 | 1021.1 |
| 20260904120925 | 76 | 158 | 0.0 | 0.0 | 0.00 | 0.00 | 0.00 | 95 | 1021.2 |
| 20260904120420 | 75 | 158 | 0.0 | 0.0 | 0.00 | 0.00 | 0.00 | 98 | 1021.1 |
| 20260904115915 | 74 | 158 | 0.0 | 0.0 | 0.00 | 0.00 | 0.00 | 98 | 1021.0 |
| 20260904115410 | 74 | 158 | 0.0 | 0.0 | 0.00 | 0.00 | 0.00 | 99 | 1021.0 |
| 20260904114904 | 73 | 158 | 0.0 | 0.0 | 0.00 | 0.00 | 0.00 | 99 | 1020.9 |
| 20260904114359 | 73 | 158 | 0.0 | 0.0 | 0.00 | 0.00 | 0.00 | 99 | 1020.8 |
| 20260904113855 | 73 | 154 | 0.0 | 0.0 | 0.00 | 0.00 | 0.00 | 99 | 1021.0 |
| 20260904113354 | 72 | 153 | 0.0 | 0.0 | 0.00 | 0.00 | 0.00 | 99 | 1020.8 |
| 20260904112848 | 72 | 153 | 0.0 | 0.0 | 0.00 | 0.00 | 0.00 | 99 | 1020.7 |
| 20260904110207 | 72 | 153 | 0.0 | 0.0 | 0.00 | 0.00 | 0.00 | 99 | 1020.2 |
| 20260904105702 | 72 | 153 | 0.0 | 0.0 | 0.00 | 0.00 | 0.00 | 99 | 1020.2 |
| 20260904105157 | 72 | 153 | 0.0 | 0.0 | 0.00 | 0.00 | 0.00 | 99 | 1020.4 |
| 20260904104652 | 71 | 153 | 0.0 | 0.0 | 0.00 | 0.00 | 0.00 | 99 | 1020.3 |
| 20260904104148 | 71 | 153 | 0.0 | 0.0 | 0.00 | 0.00 | 0.00 | 99 | 1020.3 |
| 20260904103644 | 72 | 153 | 0.0 | 0.0 | 0.00 | 0.00 | 0.00 | 99 | 1020.2 |
| 20260904103139 | 72 | 153 | 0.0 | 0.0 | 0.00 | 0.00 | 0.00 | 99 | 1020.3 |
| 20260904102636 | 72 | 153 | 0.0 | 0.0 | 0.00 | 0.00 | 0.00 | 99 | 1020.4 |
| 20260904102130 | 72 | 153 | 0.0 | 0.0 | 0.00 | 0.00 | 0.00 | 99 | 1020.1 |
| 20260904101627 | 72 | 153 | 0.0 | 0.0 | 0.00 | 0.00 | 0.00 | 99 | 1020.0 |
| 20260904101122 | 72 | 153 | 0.0 | 0.0 | 0.00 | 0.00 | 0.00 | 99 | 1020.2 |
| 20260904100618 | 72 | 153 | 0.0 | 0.0 | 0.00 | 0.00 | 0.00 | 99 | 1020.1 |
| 20260904100113 | 72 | 153 | 0.0 | 0.0 | 0.00 | 0.00 | 0.00 | 99 | 1020.0 |
| 20260904095608 | 72 | 153 | 0.0 | 0.0 | 0.00 | 0.00 | 0.00 | 99 | 1020.1 |
| 20260904095103 | 72 | 153 | 0.0 | 0.0 | 0.00 | 0.00 | 0.00 | 99 | 1019.9 |
| 20260904094603 | 72 | 153 | 0.0 | 0.0 | 0.00 | 0.00 | 0.00 | 99 | 1019.9 |
| 20260904094057 | 73 | 153 | 0.0 | 0.0 | 0.00 | 0.00 | 0.00 | 99 | 1019.8 |
| 20260904093554 | 72 | 162 | 0.0 | 0.0 | 0.00 | 0.00 | 0.00 | 99 | 1019.8 |
| 20260904093049 | 72 | 162 | 0.0 | 0.0 | 0.00 | 0.00 | 0.00 | 99 | 1019.7 |
| 20260904092545 | 72 | 162 | 0.0 | 0.0 | 0.00 | 0.00 | 0.00 | 99 | 1019.7 |
| 20260904092041 | 72 | 162 | 0.0 | 0.0 | 0.00 | 0.00 | 0.00 | 99 | 1019.7 |
| 20260904091537 | 72 | 162 | 0.0 | 0.0 | 0.00 | 0.00 | 0.00 | 99 | 1019.9 |
| 20260904091036 | 73 | 162 | 0.0 | 0.0 | 0.00 | 0.00 | 0.00 | 99 | 1019.8 |
| 20260904090532 | 73 | 162 | 0.0 | 0.0 | 0.00 | 0.00 | 0.00 | 99 | 1019.7 |
| 20260904090028 | 73 | 162 | 0.0 | 0.0 | 0.00 | 0.00 | 0.00 | 99 | 1019.7 |
| 20260904085523 | 73 | 162 | 0.0 | 0.0 | 0.00 | 0.00 | 0.00 | 99 | 1019.6 |
| 20260904085022 | 73 | 162 | 0.0 | 0.0 | 0.00 | 0.00 | 0.00 | 99 | 1019.6 |
| 20260904084518 | 73 | 162 | 0.0 | 0.0 | 0.00 | 0.00 | 0.00 | 99 | 1019.6 |
| 20260904084015 | 73 | 162 | 0.0 | 0.0 | 0.00 | 0.00 | 0.00 | 99 | 1019.8 |
| 20260904083510 | 73 | 162 | 0.0 | 0.0 | 0.00 | 0.00 | 0.00 | 99 | 1019.7 |
| 20260904083006 | 73 | 162 | 0.0 | 0.0 | 0.00 | 0.00 | 0.00 | 99 | 1019.6 |
| 20260904082500 | 73 | 162 | 0.0 | 0.0 | 0.00 | 0.00 | 0.00 | 99 | 1019.5 |
| 20260904081955 | 73 | 162 | 0.0 | 0.0 | 0.00 | 0.00 | 0.00 | 99 | 1019.6 |
| 20260904081451 | 73 | 162 | 0.0 | 0.0 | 0.00 | 0.00 | 0.00 | 99 | 1019.4 |
| 20260904080946 | 74 | 162 | 0.0 | 0.0 | 0.00 | 0.00 | 0.00 | 99 | 1019.7 |
| 20260904080442 | 74 | 162 | 0.0 | 0.0 | 0.00 | 0.00 | 0.00 | 99 | 1019.5 |
| 20260904075937 | 74 | 162 | 0.0 | 0.0 | 0.00 | 0.00 | 0.00 | 99 | 1019.4 |
| 20260904075433 | 74 | 162 | 0.0 | 0.0 | 0.00 | 0.00 | 0.00 | 99 | 1019.6 |
| 20260904074932 | 74 | 162 | 0.0 | 0.0 | 0.00 | 0.00 | 0.00 | 99 | 1019.6 |
| 20260904074427 | 74 | 162 | 0.0 | 0.0 | 0.00 | 0.00 | 0.00 | 99 | 1019.6 |
| 20260904073922 | 74 | 162 | 0.0 | 0.0 | 0.00 | 0.00 | 0.00 | 99 | 1019.6 |
| 20260904073418 | 74 | 162 | 0.0 | 0.0 | 0.00 | 0.00 | 0.00 | 99 | 1019.7 |
| 20260904072914 | 74 | 162 | 0.0 | 0.0 | 0.00 | 0.00 | 0.00 | 99 | 1019.5 |
| 20260904072409 | 74 | 162 | 0.0 | 0.0 | 0.00 | 0.00 | 0.00 | 99 | 1019.4 |
| 20260904071904 | 74 | 162 | 0.0 | 0.0 | 0.00 | 0.00 | 0.00 | 99 | 1019.2 |
| 20260904071359 | 74 | 162 | 0.0 | 0.0 | 0.00 | 0.00 | 0.00 | 99 | 1019.5 |
| 20260904070854 | 74 | 162 | 0.0 | 0.0 | 0.00 | 0.00 | 0.00 | 99 | 1019.6 |
| 20260904070352 | 74 | 162 | 0.0 | 0.0 | 0.00 | 0.00 | 0.00 | 99 | 1019.5 |
| 20260904065847 | 74 | 162 | 0.0 | 0.0 | 0.00 | 0.00 | 0.00 | 99 | 1019.6 |
| 20260904065344 | 74 | 162 | 0.0 | 0.0 | 0.00 | 0.00 | 0.00 | 99 | 1019.7 |
| 20260904064838 | 74 | 162 | 0.0 | 0.0 | 0.00 | 0.00 | 0.00 | 99 | 1019.5 |
| 20260904064334 | 75 | 162 | 0.0 | 0.0 | 0.00 | 0.00 | 0.00 | 99 | 1019.5 |
| 20260904063830 | 75 | 162 | 0.0 | 0.0 | 0.00 | 0.00 | 0.00 | 99 | 1019.6 |
| 20260904063326 | 75 | 162 | 0.0 | 0.0 | 0.00 | 0.00 | 0.00 | 99 | 1019.7 |
| 20260904062821 | 75 | 162 | 0.0 | 0.0 | 0.00 | 0.00 | 0.00 | 99 | 1019.6 |
| 20260904062317 | 75 | 162 | 0.0 | 0.0 | 0.00 | 0.00 | 0.00 | 99 | 1019.5 |
| 20260904061812 | 75 | 162 | 0.0 | 0.0 | 0.00 | 0.00 | 0.00 | 99 | 1019.7 |
| 20260904061308 | 75 | 162 | 0.0 | 0.0 | 0.00 | 0.00 | 0.00 | 99 | 1019.7 |
| 20260904060805 | 75 | 162 | 0.0 | 0.0 | 0.00 | 0.00 | 0.00 | 99 | 1019.7 |
| 20260904060301 | 75 | 162 | 0.0 | 0.0 | 0.00 | 0.00 | 0.00 | 99 | 1019.9 |
| 20260904055756 | 75 | 162 | 0.0 | 0.0 | 0.00 | 0.00 | 0.00 | 99 | 1019.9 |
| 20260904055255 | 75 | 162 | 0.0 | 0.0 | 0.00 | 0.00 | 0.00 | 99 | 1019.9 |
| 20260904054751 | 75 | 162 | 0.0 | 0.0 | 0.00 | 0.00 | 0.00 | 99 | 1019.9 |
| 20260904054247 | 75 | 162 | 0.0 | 0.0 | 0.00 | 0.00 | 0.00 | 99 | 1020.0 |
| 20260904053742 | 75 | 162 | 0.0 | 0.0 | 0.00 | 0.00 | 0.00 | 99 | 1020.0 |
| 20260904053242 | 75 | 162 | 0.0 | 0.0 | 0.00 | 0.00 | 0.00 | 99 | 1020.1 |
| 20260904052738 | 76 | 162 | 0.0 | 0.0 | 0.00 | 0.00 | 0.00 | 99 | 1020.1 |
| 20260904052234 | 76 | 162 | 0.0 | 0.0 | 0.00 | 0.00 | 0.00 | 99 | 1020.1 |
| 20260904051731 | 76 | 162 | 0.0 | 0.0 | 0.00 | 0.00 | 0.00 | 99 | 1019.8 |
| 20260904051230 | 76 | 162 | 0.0 | 0.0 | 0.00 | 0.00 | 0.00 | 99 | 1020.2 |
| 20260904050725 | 76 | 162 | 0.0 | 0.0 | 0.00 | 0.00 | 0.00 | 99 | 1020.2 |
| 20260904050222 | 76 | 162 | 0.0 | 0.0 | 0.00 | 0.00 | 0.00 | 99 | 1020.2 |
| 20260904045717 | 76 | 162 | 0.0 | 0.0 | 0.00 | 0.00 | 0.00 | 99 | 1020.3 |
| 20260904045212 | 76 | 162 | 0.0 | 0.0 | 0.00 | 0.00 | 0.00 | 98 | 1020.1 |
| 20260904044707 | 76 | 162 | 0.0 | 0.0 | 0.00 | 0.00 | 0.00 | 98 | 1020.1 |
| 20260904044203 | 76 | 162 | 0.0 | 0.0 | 0.00 | 0.00 | 0.00 | 98 | 1020.3 |
| 20260904043700 | 76 | 162 | 0.0 | 0.0 | 0.00 | 0.00 | 0.00 | 97 | 1020.0 |
| 20260904043155 | 76 | 162 | 0.0 | 0.0 | 0.00 | 0.00 | 0.00 | 97 | 1020.2 |
| 20260904042651 | 77 | 162 | 0.0 | 0.0 | 0.00 | 0.00 | 0.00 | 97 | 1020.2 |
| 20260904042147 | 77 | 162 | 0.0 | 0.0 | 0.00 | 0.00 | 0.00 | 97 | 1020.2 |
| 20260904041641 | 77 | 162 | 0.0 | 0.0 | 0.00 | 0.00 | 0.00 | 97 | 1020.1 |
| 20260904041138 | 77 | 162 | 0.0 | 0.0 | 0.00 | 0.00 | 0.00 | 97 | 1020.2 |
| 20260904040634 | 77 | 162 | 0.0 | 0.0 | 0.00 | 0.00 | 0.00 | 97 | 1020.1 |
| 20260904040129 | 77 | 162 | 0.0 | 0.0 | 0.00 | 0.00 | 0.00 | 98 | 1020.3 |
| 20260904035625 | 77 | 162 | 0.0 | 0.0 | 0.00 | 0.05 | 0.05 | 97 | 1020.2 |
| 20260904035124 | 77 | 162 | 0.0 | 0.0 | 0.00 | 0.05 | 0.05 | 97 | 1020.3 |
| 20260904034618 | 77 | 162 | 0.0 | 0.0 | 0.00 | 0.05 | 0.05 | 97 | 1020.3 |
| 20260904034114 | 77 | 162 | 0.0 | 0.0 | 0.00 | 0.05 | 0.05 | 97 | 1020.2 |
| 20260904033610 | 77 | 162 | 0.0 | 0.0 | 0.00 | 0.05 | 0.05 | 96 | 1020.3 |
| 20260904033107 | 77 | 162 | 0.0 | 0.0 | 0.00 | 0.05 | 0.05 | 97 | 1020.3 |
| 20260904032602 | 77 | 162 | 0.0 | 0.0 | 0.00 | 0.05 | 0.05 | 97 | 1020.3 |
| 20260904032101 | 77 | 162 | 0.0 | 0.0 | 0.00 | 0.05 | 0.05 | 97 | 1020.1 |
| 20260904031601 | 78 | 159 | 0.0 | 0.0 | 0.00 | 0.05 | 0.05 | 96 | 1020.1 |
| 20260904031057 | 78 | 159 | 0.0 | 0.0 | 0.00 | 0.05 | 0.05 | 96 | 1020.3 |
| 20260904030552 | 78 | 159 | 0.0 | 0.0 | 0.00 | 0.05 | 0.05 | 96 | 1020.2 |
| 20260904030048 | 78 | 159 | 0.0 | 0.0 | 0.00 | 0.05 | 0.05 | 96 | 1020.3 |
| 20260904025543 | 78 | 159 | 0.0 | 0.0 | 0.00 | 0.05 | 0.05 | 96 | 1020.4 |
| 20260904025038 | 78 | 159 | 0.0 | 0.0 | 0.00 | 0.05 | 0.05 | 96 | 1020.3 |
| 20260904024533 | 78 | 159 | 0.0 | 0.0 | 0.00 | 0.05 | 0.05 | 96 | 1020.1 |
| 20260904024029 | 78 | 159 | 0.0 | 0.0 | 0.00 | 0.05 | 0.05 | 96 | 1020.0 |
| 20260904023525 | 78 | 159 | 0.0 | 0.0 | 0.00 | 0.05 | 0.05 | 95 | 1020.3 |
| 20260904023020 | 78 | 159 | 0.0 | 0.0 | 0.00 | 0.05 | 0.05 | 95 | 1020.1 |
| 20260904022515 | 78 | 158 | 0.0 | 0.0 | 0.00 | 0.05 | 0.05 | 95 | 1020.3 |
| 20260904022012 | 78 | 159 | 0.0 | 0.0 | 0.00 | 0.05 | 0.05 | 94 | 1020.2 |
| 20260904021508 | 79 | 159 | 0.0 | 0.0 | 0.00 | 0.05 | 0.05 | 94 | 1019.9 |
| 20260904021003 | 79 | 159 | 0.0 | 0.0 | 0.00 | 0.05 | 0.05 | 94 | 1019.9 |
| 20260904020458 | 80 | 159 | 0.0 | 0.0 | 0.00 | 0.05 | 0.05 | 93 | 1019.9 |
| 20260904015956 | 80 | 159 | 0.0 | 0.0 | 0.00 | 0.05 | 0.05 | 92 | 1020.1 |
| 20260904015452 | 80 | 159 | 0.0 | 0.0 | 0.00 | 0.05 | 0.05 | 92 | 1019.9 |
| 20260904014950 | 80 | 159 | 0.0 | 0.0 | 0.00 | 0.05 | 0.05 | 92 | 1019.7 |
| 20260904014445 | 79 | 159 | 0.0 | 0.0 | 0.00 | 0.05 | 0.05 | 92 | 1019.7 |
| 20260904013941 | 80 | 159 | 0.0 | 0.0 | 0.00 | 0.05 | 0.05 | 92 | 1019.7 |
| 20260904013437 | 80 | 159 | 0.0 | 0.0 | 0.00 | 0.05 | 0.05 | 91 | 1019.8 |
| 20260904012933 | 80 | 159 | 0.0 | 0.0 | 0.00 | 0.05 | 0.05 | 91 | 1019.8 |
| 20260904012432 | 80 | 159 | 0.0 | 0.0 | 0.00 | 0.05 | 0.05 | 92 | 1019.6 |
| 20260904011927 | 80 | 159 | 0.0 | 0.0 | 0.00 | 0.05 | 0.05 | 91 | 1019.5 |
| 20260904011422 | 80 | 159 | 0.0 | 0.0 | 0.00 | 0.05 | 0.05 | 91 | 1019.6 |
| 20260904010917 | 80 | 159 | 0.0 | 0.0 | 0.00 | 0.05 | 0.05 | 92 | 1019.9 |
| 20260904010414 | 80 | 159 | 0.0 | 0.0 | 0.00 | 0.05 | 0.05 | 92 | 1019.6 |
| 20260904005908 | 79 | 159 | 0.0 | 0.0 | 0.00 | 0.05 | 0.05 | 92 | 1019.3 |
| 20260904005404 | 79 | 159 | 0.0 | 0.0 | 0.00 | 0.05 | 0.05 | 92 | 1019.4 |
| 20260904004858 | 80 | 158 | 0.0 | 0.0 | 0.00 | 0.05 | 0.05 | 93 | 1019.3 |
| 20260904004355 | 80 | 158 | 0.0 | 0.0 | 0.00 | 0.05 | 0.05 | 93 | 1019.1 |
| 20260904003849 | 79 | 158 | 0.0 | 0.0 | 0.00 | 0.05 | 0.05 | 93 | 1019.0 |
| 20260904003345 | 80 | 29 | 1.0 | 1.0 | 0.00 | 0.05 | 0.05 | 93 | 1019.2 |
| 20260904002840 | 80 | 249 | 2.0 | 2.0 | 0.00 | 0.05 | 0.05 | 92 | 1018.8 |
| 20260904002337 | 81 | 177 | 0.0 | 0.0 | 0.00 | 0.05 | 0.05 | 91 | 1018.8 |
| 20260904001836 | 81 | 155 | 0.0 | 0.0 | 0.00 | 0.05 | 0.05 | 86 | 1018.8 |
| 20260904001331 | 80 | 155 | 0.0 | 0.0 | 0.00 | 0.05 | 0.05 | 88 | 1018.8 |
| 20260904000826 | 80 | 153 | 0.0 | 1.0 | 0.00 | 0.05 | 0.05 | 89 | 1019.0 |
| 20260904000325 | 79 | 357 | 0.0 | 2.0 | 0.00 | 0.05 | 0.05 | 93 | 1019.0 |
| 20260903235820 | 79 | 180 | 0.0 | 0.0 | 0.00 | 0.05 | 0.05 | 95 | 1019.0 |
| 20260903235317 | 79 | 228 | 0.0 | 0.0 | 0.00 | 0.05 | 0.05 | 95 | 1018.7 |
| 20260903234815 | 79 | 156 | 1.0 | 1.0 | 0.00 | 0.05 | 0.05 | 95 | 1018.7 |
| 20260903234312 | 80 | 235 | 0.0 | 0.0 | 0.00 | 0.05 | 0.05 | 95 | 1018.6 |
| 20260903233808 | 80 | 217 | 0.0 | 0.0 | 0.00 | 0.05 | 0.05 | 95 | 1018.5 |
| 20260903233304 | 81 | 231 | 0.0 | 0.0 | 0.00 | 0.05 | 0.05 | 95 | 1018.6 |
| 20260903232803 | 81 | 237 | 0.0 | 0.0 | 0.00 | 0.05 | 0.05 | 94 | 1018.6 |
| 20260903232259 | 81 | 241 | 0.0 | 0.0 | 0.00 | 0.05 | 0.05 | 92 | 1018.3 |
| 20260903231758 | 81 | 241 | 0.0 | 0.0 | 0.00 | 0.05 | 0.05 | 93 | 1018.6 |
| 20260903231253 | 82 | 235 | 0.0 | 0.0 | 0.00 | 0.05 | 0.05 | 93 | 1018.4 |
| 20260903230748 | 82 | 239 | 0.0 | 1.0 | 0.00 | 0.05 | 0.05 | 90 | 1018.5 |
| 20260903230248 | 82 | 232 | 0.0 | 0.0 | 0.00 | 0.05 | 0.05 | 88 | 1018.5 |
| 20260903225744 | 83 | 229 | 0.0 | 0.0 | 0.00 | 0.05 | 0.05 | 92 | 1018.3 |
| 20260903225241 | 83 | 235 | 0.0 | 0.0 | 0.00 | 0.05 | 0.05 | 93 | 1018.3 |
| 20260903224737 | 82 | 231 | 0.0 | 0.0 | 0.00 | 0.05 | 0.05 | 93 | 1018.5 |
| 20260903224233 | 82 | 232 | 0.0 | 0.0 | 0.00 | 0.05 | 0.05 | 94 | 1018.4 |
| 20260903223728 | 82 | 229 | 0.0 | 0.0 | 0.00 | 0.05 | 0.05 | 95 | 1018.3 |
| 20260903223226 | 82 | 229 | 0.0 | 0.0 | 0.00 | 0.05 | 0.05 | 95 | 1018.6 |
| 20260903222721 | 82 | 229 | 0.0 | 0.0 | 0.00 | 0.05 | 0.05 | 94 | 1018.4 |
| 20260903222220 | 82 | 229 | 0.0 | 0.0 | 0.00 | 0.05 | 0.05 | 94 | 1018.3 |
| 20260903221716 | 82 | 230 | 0.0 | 0.0 | 0.00 | 0.05 | 0.05 | 94 | 1018.3 |
| 20260903221214 | 81 | 234 | 0.0 | 0.0 | 0.00 | 0.05 | 0.05 | 95 | 1018.4 |
| 20260903220713 | 81 | 241 | 0.0 | 0.0 | 0.00 | 0.05 | 0.05 | 94 | 1018.3 |
| 20260903220208 | 81 | 226 | 0.0 | 0.0 | 0.00 | 0.05 | 0.05 | 93 | 1018.3 |
| 20260903215707 | 82 | 220 | 0.0 | 0.0 | 0.00 | 0.05 | 0.05 | 91 | 1018.5 |
| 20260903215202 | 82 | 224 | 0.0 | 1.0 | 0.00 | 0.05 | 0.05 | 87 | 1018.4 |
| 20260903214700 | 83 | 255 | 1.0 | 1.0 | 0.24 | 0.05 | 0.05 | 84 | 1018.6 |
| 20260903214156 | 84 | 190 | 1.0 | 3.0 | 0.24 | 0.04 | 0.04 | 77 | 1018.4 |
| 20260903213650 | 90 | 168 | 1.0 | 4.0 | 0.00 | 0.00 | 0.00 | 70 | 1018.4 |
| 20260903213147 | 91 | 48 | 0.0 | 13.0 | 0.00 | 0.00 | 0.00 | 60 | 1018.6 |
| 20260903212642 | 93 | 185 | 1.0 | 2.0 | 0.00 | 0.00 | 0.00 | 58 | 1018.4 |
| 20260903212137 | 93 | 6 | 0.0 | 2.0 | 0.00 | 0.00 | 0.00 | 57 | 1018.5 |
| 20260903211632 | 92 | 20 | 1.0 | 2.0 | 0.00 | 0.00 | 0.00 | 57 | 1018.3 |
| 20260903211129 | 92 | 40 | 1.0 | 4.0 | 0.00 | 0.00 | 0.00 | 57 | 1018.4 |
| 20260903210624 | 92 | 54 | 2.0 | 4.0 | 0.00 | 0.00 | 0.00 | 57 | 1018.4 |
| 20260903210120 | 92 | 35 | 3.0 | 4.0 | 0.00 | 0.00 | 0.00 | 57 | 1018.5 |
| 20260903205619 | 92 | 35 | 3.0 | 4.0 | 0.00 | 0.00 | 0.00 | 58 | 1018.3 |
| 20260903205113 | 92 | 184 | 3.0 | 4.0 | 0.00 | 0.00 | 0.00 | 58 | 1018.4 |
| 20260903204608 | 94 | 154 | 0.0 | 3.0 | 0.00 | 0.00 | 0.00 | 57 | 1018.5 |
| 20260903204104 | 96 | 42 | 2.0 | 3.0 | 0.00 | 0.00 | 0.00 | 52 | 1018.5 |
| 20260903203559 | 95 | 235 | 0.0 | 1.0 | 0.00 | 0.00 | 0.00 | 53 | 1018.6 |
| 20260903203054 | 95 | 31 | 3.0 | 4.0 | 0.00 | 0.00 | 0.00 | 54 | 1018.7 |
| 20260903202549 | 95 | 186 | 2.0 | 4.0 | 0.00 | 0.00 | 0.00 | 55 | 1018.6 |
| 20260903202045 | 96 | 65 | 1.0 | 4.0 | 0.00 | 0.00 | 0.00 | 53 | 1018.7 |
| 20260903201539 | 95 | 80 | 2.0 | 4.0 | 0.00 | 0.00 | 0.00 | 53 | 1018.9 |
| 20260903201039 | 93 | 40 | 0.0 | 2.0 | 0.00 | 0.00 | 0.00 | 57 | 1018.9 |
| 20260903200534 | 93 | 26 | 0.0 | 1.0 | 0.00 | 0.00 | 0.00 | 56 | 1019.0 |
| 20260903200029 | 93 | 25 | 0.0 | 2.0 | 0.00 | 0.00 | 0.00 | 56 | 1019.2 |
| 20260903195525 | 94 | 44 | 1.0 | 3.0 | 0.00 | 0.00 | 0.00 | 55 | 1019.1 |
| 20260903195020 | 95 | 50 | 5.0 | 6.0 | 0.00 | 0.00 | 0.00 | 53 | 1019.1 |
| 20260903194515 | 94 | 79 | 0.0 | 1.0 | 0.00 | 0.00 | 0.00 | 53 | 1019.3 |
| 20260903194011 | 94 | 93 | 0.0 | 2.0 | 0.00 | 0.00 | 0.00 | 56 | 1019.3 |
| 20260903193507 | 93 | 286 | 0.0 | 0.0 | 0.00 | 0.00 | 0.00 | 58 | 1019.3 |
| 20260903193001 | 93 | 42 | 2.0 | 3.0 | 0.00 | 0.00 | 0.00 | 54 | 1019.3 |
| 20260903192459 | 93 | 34 | 4.0 | 4.0 | 0.00 | 0.00 | 0.00 | 54 | 1019.6 |
| 20260903191953 | 93 | 45 | 3.0 | 4.0 | 0.00 | 0.00 | 0.00 | 56 | 1019.6 |
| 20260903191449 | 94 | 9 | 2.0 | 3.0 | 0.00 | 0.00 | 0.00 | 55 | 1019.5 |
| 20260903190948 | 97 | 272 | 0.0 | 0.0 | 0.00 | 0.00 | 0.00 | 53 | 1019.7 |
| 20260903190443 | 97 | 88 | 1.0 | 2.0 | 0.00 | 0.00 | 0.00 | 52 | 1019.7 |
| 20260903185937 | 95 | 33 | 0.0 | 1.0 | 0.00 | 0.00 | 0.00 | 55 | 1019.6 |
| 20260903185433 | 95 | 29 | 2.0 | 3.0 | 0.00 | 0.00 | 0.00 | 53 | 1019.7 |
| 20260903184927 | 94 | 158 | 1.0 | 2.0 | 0.00 | 0.00 | 0.00 | 56 | 1019.6 |
| 20260903184424 | 93 | 37 | 2.0 | 4.0 | 0.00 | 0.00 | 0.00 | 56 | 1019.8 |
| 20260903183924 | 92 | 80 | 0.0 | 2.0 | 0.00 | 0.00 | 0.00 | 54 | 1019.9 |
| 20260903183419 | 92 | 131 | 1.0 | 2.0 | 0.00 | 0.00 | 0.00 | 56 | 1019.8 |
| 20260903182918 | 93 | 343 | 2.0 | 3.0 | 0.00 | 0.00 | 0.00 | 56 | 1020.1 |
| 20260903182417 | 95 | 277 | 0.0 | 1.0 | 0.00 | 0.00 | 0.00 | 54 | 1020.1 |
| 20260903181912 | 95 | 35 | 0.0 | 2.0 | 0.00 | 0.00 | 0.00 | 52 | 1020.1 |
| 20260903181407 | 96 | 227 | 1.0 | 2.0 | 0.00 | 0.00 | 0.00 | 53 | 1020.3 |
| 20260903180907 | 96 | 26 | 2.0 | 3.0 | 0.00 | 0.00 | 0.00 | 52 | 1020.4 |
| 20260903180401 | 93 | 224 | 0.0 | 2.0 | 0.00 | 0.00 | 0.00 | 59 | 1020.2 |
| 20260903175901 | 94 | 48 | 6.0 | 7.0 | 0.00 | 0.00 | 0.00 | 53 | 1020.4 |
| 20260903175355 | 94 | 22 | 2.0 | 3.0 | 0.00 | 0.00 | 0.00 | 52 | 1020.2 |
| 20260903174849 | 93 | 63 | 0.0 | 2.0 | 0.00 | 0.00 | 0.00 | 57 | 1020.5 |
| 20260903174345 | 93 | 227 | 0.0 | 3.0 | 0.00 | 0.00 | 0.00 | 59 | 1020.3 |
| 20260903173844 | 94 | 59 | 4.0 | 6.0 | 0.00 | 0.00 | 0.00 | 53 | 1020.4 |
| 20260903173339 | 93 | 314 | 2.0 | 7.0 | 0.00 | 0.00 | 0.00 | 57 | 1020.8 |
| 20260903172835 | 92 | 234 | 2.0 | 3.0 | 0.00 | 0.00 | 0.00 | 60 | 1020.8 |
| 20260903172330 | 93 | 120 | 2.0 | 3.0 | 0.00 | 0.00 | 0.00 | 58 | 1020.8 |
| 20260903171826 | 92 | 14 | 2.0 | 2.0 | 0.00 | 0.00 | 0.00 | 57 | 1020.8 |
| 20260903171321 | 91 | 227 | 0.0 | 0.0 | 0.00 | 0.00 | 0.00 | 58 | 1020.9 |
| 20260903170820 | 91 | 195 | 0.0 | 1.0 | 0.00 | 0.00 | 0.00 | 61 | 1021.1 |
| 20260903170315 | 92 | 227 | 0.0 | 1.0 | 0.00 | 0.00 | 0.00 | 60 | 1021.0 |
| 20260903165813 | 94 | 55 | 1.0 | 3.0 | 0.00 | 0.00 | 0.00 | 57 | 1021.1 |
| 20260903165308 | 95 | 185 | 0.0 | 3.0 | 0.00 | 0.00 | 0.00 | 57 | 1021.1 |
| 20260903164803 | 95 | 204 | 2.0 | 3.0 | 0.00 | 0.00 | 0.00 | 56 | 1021.2 |
| 20260903164259 | 94 | 251 | 0.0 | 2.0 | 0.00 | 0.00 | 0.00 | 59 | 1021.2 |
| 20260903163757 | 95 | 296 | 0.0 | 1.0 | 0.00 | 0.00 | 0.00 | 54 | 1021.2 |
| 20260903163255 | 94 | 20 | 1.0 | 1.0 | 0.00 | 0.00 | 0.00 | 59 | 1021.3 |
| 20260903162752 | 94 | 223 | 0.0 | 2.0 | 0.00 | 0.00 | 0.00 | 58 | 1021.3 |
| 20260903162246 | 92 | 230 | 0.0 | 2.0 | 0.00 | 0.00 | 0.00 | 56 | 1021.5 |
| 20260903161742 | 92 | 48 | 4.0 | 4.0 | 0.00 | 0.00 | 0.00 | 60 | 1021.4 |
| 20260903161237 | 92 | 23 | 3.0 | 6.0 | 0.00 | 0.00 | 0.00 | 59 | 1021.5 |
| 20260903160733 | 94 | 24 | 3.0 | 4.0 | 0.00 | 0.00 | 0.00 | 58 | 1021.6 |
| 20260903160231 | 92 | 205 | 1.0 | 3.0 | 0.00 | 0.00 | 0.00 | 62 | 1021.6 |
| 20260903155730 | 95 | 109 | 0.0 | 1.0 | 0.00 | 0.00 | 0.00 | 58 | 1021.5 |
| 20260903155225 | 93 | 49 | 1.0 | 2.0 | 0.00 | 0.00 | 0.00 | 60 | 1021.6 |
| 20260903154721 | 93 | 32 | 2.0 | 3.0 | 0.00 | 0.00 | 0.00 | 60 | 1021.8 |
| 20260903154217 | 92 | 75 | 0.0 | 2.0 | 0.00 | 0.00 | 0.00 | 62 | 1021.6 |
| 20260903153712 | 92 | 239 | 3.0 | 3.0 | 0.00 | 0.00 | 0.00 | 63 | 1021.5 |
| 20260903153208 | 92 | 249 | 0.0 | 2.0 | 0.00 | 0.00 | 0.00 | 65 | 1021.6 |
| 20260903152704 | 91 | 25 | 1.0 | 1.0 | 0.00 | 0.00 | 0.00 | 65 | 1021.4 |
| 20260903152200 | 90 | 18 | 2.0 | 3.0 | 0.00 | 0.00 | 0.00 | 66 | 1021.6 |
| 20260903151700 | 90 | 7 | 0.0 | 2.0 | 0.00 | 0.00 | 0.00 | 66 | 1021.6 |
| 20260903151155 | 91 | 90 | 3.0 | 4.0 | 0.00 | 0.00 | 0.00 | 66 | 1021.7 |
| 20260903150655 | 91 | 58 | 0.0 | 2.0 | 0.00 | 0.00 | 0.00 | 67 | 1021.4 |
| 20260903150150 | 90 | 253 | 0.0 | 0.0 | 0.00 | 0.00 | 0.00 | 69 | 1021.6 |
| 20260903145650 | 89 | 239 | 1.0 | 2.0 | 0.00 | 0.00 | 0.00 | 69 | 1021.5 |
| 20260903145145 | 89 | 54 | 2.0 | 3.0 | 0.00 | 0.00 | 0.00 | 68 | 1021.6 |
| 20260903144643 | 88 | 243 | 0.0 | 3.0 | 0.00 | 0.00 | 0.00 | 71 | 1021.5 |
| 20260903144140 | 89 | 258 | 2.0 | 2.0 | 0.00 | 0.00 | 0.00 | 70 | 1021.6 |
| 20260903143636 | 90 | 262 | 0.0 | 2.0 | 0.00 | 0.00 | 0.00 | 66 | 1021.2 |
| 20260903143131 | 89 | 309 | 0.0 | 0.0 | 0.00 | 0.00 | 0.00 | 69 | 1021.4 |
| 20260903142627 | 88 | 80 | 1.0 | 3.0 | 0.00 | 0.00 | 0.00 | 70 | 1021.4 |
| 20260903142123 | 89 | 9 | 1.0 | 2.0 | 0.00 | 0.00 | 0.00 | 66 | 1021.7 |
| 20260903141619 | 89 | 138 | 0.0 | 0.0 | 0.00 | 0.00 | 0.00 | 65 | 1021.6 |
| 20260903141114 | 89 | 205 | 0.0 | 0.0 | 0.00 | 0.00 | 0.00 | 70 | 1021.7 |
| 20260903140610 | 90 | 205 | 0.0 | 0.0 | 0.00 | 0.00 | 0.00 | 67 | 1021.5 |
| 20260903140105 | 89 | 99 | 0.0 | 0.0 | 0.00 | 0.00 | 0.00 | 70 | 1021.7 |
| 20260903135601 | 87 | 98 | 0.0 | 0.0 | 0.00 | 0.00 | 0.00 | 73 | 1021.6 |
| 20260903135101 | 89 | 125 | 0.0 | 2.0 | 0.00 | 0.00 | 0.00 | 72 | 1021.5 |
| 20260903134559 | 88 | 208 | 0.0 | 0.0 | 0.00 | 0.00 | 0.00 | 73 | 1021.8 |
| 20260903134055 | 87 | 226 | 0.0 | 0.0 | 0.00 | 0.00 | 0.00 | 72 | 1021.6 |
| 20260903133553 | 85 | 233 | 0.0 | 0.0 | 0.00 | 0.00 | 0.00 | 75 | 1021.6 |
| 20260903133049 | 85 | 345 | 0.0 | 1.0 | 0.00 | 0.00 | 0.00 | 77 | 1021.6 |
| 20260903132543 | 86 | 345 | 0.0 | 0.0 | 0.00 | 0.00 | 0.00 | 73 | 1021.7 |
| 20260903132038 | 85 | 345 | 0.0 | 1.0 | 0.00 | 0.00 | 0.00 | 76 | 1021.7 |